This demonstration page uses our WeatherBlox Daily Observations layout. Learn more.

Left ArrowRight Arrow

34.16533, -84.80231

Hourly Observations for July 12, 2017

Temp ( °F °C ) Dew Point ( °F °C ) Humidity (%) Winds ( mph kmh ) Pressure ( in mb ) Visibility ( mi km ) Precip ( " mm )
12:53 am 00:53 Clear 73 22.8 73 22.8 100 100 Calm 30.09 1019 10 16 0.00 0.00
1:53 am 01:53 Clear 72 22.2 72 22.2 100 100 Calm 30.09 1019 10 16 0.00 0.00
2:53 am 02:53 Clear 71 21.7 71 21.7 100 100 Calm 30.09 1019 7 11 0.00 0.00
3:53 am 03:53 Clear 70 21.1 70 21.1 100 100 Calm 30.08 1019 8 13 0.00 0.00
4:53 am 04:53 Clear 69 20.6 69 20.6 100 100 SSE 3 6 30.10 1019 7 11 0.00 0.00
5:53 am 05:53 Clear 70 21.1 70 21.1 100 100 Calm 30.11 1020 7 11 0.00 0.00
6:53 am 06:53 Sunny 70 21.1 70 21.1 100 100 Calm 30.13 1020 8 13 0.00 0.00
7:53 am 07:53 Sunny 73 22.8 73 22.8 100 100 Calm 30.15 1021 9 14 0.00 0.00
8:37 am 08:37 Mostly Cloudy 75 23.9 73 22.8 94 94 Calm 30.18 1022 10 16 0.00 0.00
8:53 am 08:53 Cloudy 75 23.9 73 22.8 94 94 Calm 30.16 1022 10 16 0.00 0.00
9:53 am 09:53 Partly Cloudy 79 26.1 74 23.3 85 85 Calm 30.16 1022 10 16 0.00 0.00
10:53 am 10:53 Partly Cloudy 82 27.8 74 23.3 77 77 VRB 3 6 30.16 1021 10 16 0.00 0.00
11:03 am 11:03 Mostly Cloudy 83 28.3 75 23.9 77 77 Calm 30.15 1021 10 16 0.00 0.00
11:35 am 11:35 Partly Cloudy 82 27.8 73 22.8 74 74 Calm 30.15 1021 10 16 0.00 0.00
11:53 am 11:53 Mostly Sunny 84 28.9 74 23.3 72 72 Calm 30.16 1021 10 16 0.00 0.00
12:53 pm 12:53 Mostly Cloudy 86 30 74 23.3 67 67 VRB 3 6 30.15 1021 10 16 0.00 0.00
1:53 pm 13:53 Mostly Cloudy 86 30 73 22.8 65 65 Calm 30.14 1021 10 16 0.00 0.00
2:53 pm 14:53 Sunny 88 31.1 73 22.8 61 61 VRB 5 7 30.12 1020 10 16 0.00 0.00
3:53 pm 15:53 Mostly Cloudy 91 32.8 74 23.3 57 57 Calm 30.10 1019 10 16 0.00 0.00
4:53 pm 16:53 Partly Cloudy 88 31.1 74 23.3 63 63 S 7 11 30.09 1019 10 16 0.00 0.03
5:53 pm 17:53 Sunny 88 31.1 72 22.2 59 59 Calm 30.08 1019 10 16 0.00 0.00
6:53 pm 18:53 Sunny 88 31.1 73 22.8 61 61 S 3 6 30.08 1019 10 16 0.00 0.00
7:53 pm 19:53 Sunny 83 28.3 78 25.6 85 85 Calm 30.08 1019 10 16 0.00 0.00
8:53 pm 20:53 Clear 81 27.2 75 23.9 82 82 Calm 30.09 1019 10 16 0.00 0.00
9:53 pm 21:53 Clear 79 26.1 74 23.3 85 85 S 3 6 30.10 1019 10 16 0.00 0.00
10:53 pm 22:53 Clear 79 26.1 73 22.8 82 82 S 6 9 30.13 1020 10 16 0.00 0.00
11:53 pm 23:53 Clear 75 23.9 74 23.3 96 96 Calm 30.15 1021 10 16 0.00 0.00

Powered by AerisWeather